Location: Constantia
(34.0183°S, 18.4411°E)
Time: 09:34:34
(UTC+00:00)

Cosmos-2242 - Pass Details

Date: 17 February 2020
Orbit: 592 x 616 km, 82.5° (Epoch: 09 April)

Event Time Altitude Azimuth Distance (km) Brightness Sun altitude
Rises 02:20:11 0° 192° (SSW) 2,923 6.8 -23.7°
Reaches altitude 10° 02:22:28 10° 196° (SSW) 2,009 5.9 -23.4°
Enters shadow 02:26:02 48° 234° (SW) 823 3.5 -22.8°
